Location: Hamayl? Da??
(36.7028°N, 30.1716°E)
Time: 06:44:07
(UTC+00:00)

USA 186 - Pass Details

Date: 04 August 2024
Orbit: 373 x 421 km, 97.1° (Epoch: 09 September)

Event Time Altitude Azimuth Distance (km) Brightness Sun altitude
Exits shadow 17:39:42 - 164° (SSE) 1,992 4.8 -7.6°
Reaches altitude 10° 17:41:06 10° 163° (SSE) 1,373 3.9 -7.9°
Maximum altitude 17:44:01 75° 79° (E) 390 1.4 -8.4°
Drops below altitude 10° 17:46:57 10° 352° (N) 1,385 4.9 -8.9°
Sets 17:48:55 0° 351° (N) 2,243 6.0 -9.2°
